Hourly Data Report for February 10, 2002

SHERBROOKE A
QUEBEC

45°26'00.000" N
71°41'00.000" W
241.40 m
7028124
71610
YSC

Download Data

Hourly Data (February 2002)
Hourly Data Report for February 10, 2002
TIME
LST
Temp Definition
°C
Dew Point Definition
°C
Rel Hum Definition
%
Precip. Amount Definition
mm

Wind Dir Definition
10's deg

Wind Spd Definition
km/h
Visibility Definition
km
Stn Press Definition
kPa
Hmdx Definition


Wind Chill Definition


Weather Definition


00:00 -16.7 -23.3 57   7 11 15.0 100.49   -24  
01:00 -17.3 -23.4 59   7 7 15.0 100.39   -23  
02:00 -17.7 -23.6 60   6 7 15.0 100.34   -23  
03:00 -17.5 -23.4 60   7 9 15.0 100.23   -24  
04:00 -18.6 -24.0 62   9 9 15.0 100.17   -25  
05:00 -18.4 -24.1 61   7 11 15.0 100.06   -26  
06:00 -18.4 -24.0 61   8 7 15.0 99.97   -24  
07:00 -18.1 -23.8 61   8 9 15.0 99.89   -24  
08:00 -14.6 -21.4 56   9 6 24.1 99.81   -19 Cloudy
09:00 -3.9 -22.4 22   17 15 24.1 99.75   -9 Cloudy
10:00 -2.4 -11.4 50   16 15 24.1 99.64   -7 Cloudy
11:00 0.2 -6.5 61   19 30 24.1 99.53     Cloudy
12:00 1.1 -5.8 60   19 22 24.1 99.37     Cloudy
13:00 1.8 -4.9 61   17 20 24.1 99.19     Cloudy
14:00 2.2 -4.6 61   18 22 24.1 98.96     Cloudy
15:00 2.5 -4.0 62   16 17 24.1 98.75     Cloudy
16:00 2.4 -3.4 65   18 22 24.1 98.56     Cloudy
17:00 2.5 -2.6 69   19 17 19.3 98.46     Snow
18:00 1.8 -1.0 82   18 17 4.8 98.35      
19:00 1.7 -0.3 87   19 17 15.0 98.18     Moderate Rain
20:00 1.7 0.0 88   22 9 9.7 98.06     Moderate Rain
21:00 1.9 0.1 88   21 9 9.7 97.94     Rain
22:00 1.6 0.1 90     0 11.3 97.76     Rain
23:00 0.8 -0.4 92   34 4 2.6 97.58     Rain

Notes on Data Quality.

Legend

  • E = Estimated
  • M = Missing
  • NA = Not Available*
  • [empty] = Indicates an unobserved value
Date modified: